| time (UTC) | temp F | wind direction | speed MPH | gust MPH | rain 1hr in | rain 24hr in | rain mn in | humidity % | barometer mb |
| 20260906110505 | 77 | 97 | 0.0 | 0.0 | 0.00 | 0.00 | 0.00 | 89 | 1009.3 |
| 20260906110005 | 77 | 131 | 0.0 | 0.0 | 0.00 | 0.00 | 0.00 | 89 | 1009.3 |
| 20260906105505 | 77 | 115 | 0.0 | 0.0 | 0.00 | 0.00 | 0.00 | 89 | 1009.3 |
| 20260906105005 | 77 | 101 | 0.0 | 0.0 | 0.00 | 0.00 | 0.00 | 89 | 1009.3 |
| 20260906104505 | 77 | 107 | 0.0 | 0.0 | 0.00 | 0.00 | 0.00 | 88 | 1009.6 |
| 20260906104005 | 77 | 110 | 0.0 | 0.0 | 0.00 | 0.00 | 0.00 | 88 | 1008.9 |
| 20260906103505 | 77 | 120 | 0.0 | 0.0 | 0.00 | 0.00 | 0.00 | 88 | 1009.3 |
| 20260906103005 | 77 | 84 | 4.0 | 0.0 | 0.00 | 0.00 | 0.00 | 88 | 1009.3 |
| 20260906102505 | 77 | 96 | 4.0 | 0.0 | 0.00 | 0.00 | 0.00 | 88 | 1008.9 |
| 20260906102005 | 77 | 87 | 0.0 | 0.0 | 0.00 | 0.00 | 0.00 | 88 | 1008.9 |
| 20260906101505 | 77 | 77 | 0.0 | 0.0 | 0.00 | 0.00 | 0.00 | 88 | 1008.6 |
| 20260906101005 | 76 | 111 | 0.0 | 0.0 | 0.00 | 0.00 | 0.00 | 87 | 1008.9 |
| 20260906100505 | 76 | 103 | 0.0 | 0.0 | 0.00 | 0.00 | 0.00 | 87 | 1008.9 |
| 20260906100005 | 76 | 107 | 0.0 | 0.0 | 0.00 | 0.00 | 0.00 | 87 | 1008.9 |
| 20260906095505 | 76 | 96 | 0.0 | 0.0 | 0.00 | 0.00 | 0.00 | 87 | 1008.9 |
| 20260906095006 | 76 | 61 | 4.0 | 0.0 | 0.00 | 0.00 | 0.00 | 87 | 1009.3 |
| 20260906094505 | 76 | 105 | 0.0 | 0.0 | 0.00 | 0.00 | 0.00 | 87 | 1008.9 |
| 20260906094004 | 76 | 102 | 0.0 | 0.0 | 0.00 | 0.00 | 0.00 | 87 | 1008.9 |
| 20260906093505 | 76 | 106 | 0.0 | 0.0 | 0.00 | 0.00 | 0.00 | 87 | 1008.9 |
| 20260906093005 | 76 | 63 | 4.0 | 0.0 | 0.00 | 0.00 | 0.00 | 87 | 1008.9 |
| 20260906092505 | 76 | 91 | 4.0 | 0.0 | 0.00 | 0.00 | 0.00 | 87 | 1008.9 |
| 20260906092005 | 76 | 82 | 0.0 | 0.0 | 0.00 | 0.00 | 0.00 | 87 | 1008.9 |
| 20260906091713 | 76 | 95 | 0.0 | 0.0 | 0.00 | 0.00 | 0.00 | 87 | 1008.9 |
| 20260906091212 | 76 | 115 | 0.0 | 0.0 | 0.00 | 0.00 | 0.00 | 87 | 1008.9 |
| 20260906090713 | 76 | 107 | 0.0 | 0.0 | 0.00 | 0.00 | 0.00 | 87 | 1009.3 |
| 20260906090006 | 76 | 110 | 0.0 | 0.0 | 0.00 | 0.00 | 0.00 | 87 | 1009.3 |
| 20260906085505 | 76 | 111 | 0.0 | 0.0 | 0.00 | 0.00 | 0.00 | 86 | 1009.3 |
| 20260906085005 | 76 | 113 | 0.0 | 0.0 | 0.00 | 0.00 | 0.00 | 86 | 1009.3 |
| 20260906084505 | 75 | 109 | 0.0 | 0.0 | 0.00 | 0.00 | 0.00 | 86 | 1008.9 |
| 20260906084212 | 75 | 118 | 0.0 | 0.0 | 0.00 | 0.00 | 0.00 | 86 | 1008.9 |
| 20260906083505 | 75 | 103 | 0.0 | 0.0 | 0.00 | 0.00 | 0.00 | 87 | 1009.3 |
| 20260906083005 | 75 | 114 | 0.0 | 0.0 | 0.00 | 0.00 | 0.00 | 86 | 1009.3 |
| 20260906082505 | 74 | 118 | 0.0 | 0.0 | 0.00 | 0.00 | 0.00 | 86 | 1009.6 |
| 20260906082005 | 74 | 118 | 0.0 | 0.0 | 0.00 | 0.00 | 0.00 | 86 | 1009.3 |
| 20260906081505 | 74 | 118 | 0.0 | 0.0 | 0.00 | 0.00 | 0.00 | 86 | 1009.6 |
| 20260906081005 | 74 | 118 | 0.0 | 0.0 | 0.00 | 0.00 | 0.00 | 85 | 1009.6 |
| 20260906080505 | 74 | 118 | 0.0 | 0.0 | 0.00 | 0.00 | 0.00 | 85 | 1009.6 |
| 20260906080211 | 74 | 118 | 0.0 | 0.0 | 0.00 | 0.00 | 0.00 | 85 | 1009.6 |
| 20260906075505 | 75 | 118 | 0.0 | 0.0 | 0.00 | 0.00 | 0.00 | 85 | 1009.9 |
| 20260906075005 | 75 | 118 | 0.0 | 0.0 | 0.00 | 0.00 | 0.00 | 86 | 1009.9 |
| 20260906074504 | 75 | 118 | 0.0 | 0.0 | 0.00 | 0.00 | 0.00 | 86 | 1009.9 |
| 20260906074006 | 75 | 118 | 0.0 | 0.0 | 0.00 | 0.00 | 0.00 | 86 | 1009.9 |
| 20260906073505 | 75 | 111 | 0.0 | 0.0 | 0.00 | 0.00 | 0.00 | 85 | 1010.3 |
| 20260906073004 | 75 | 111 | 0.0 | 0.0 | 0.00 | 0.00 | 0.00 | 85 | 1010.3 |
| 20260906072505 | 75 | 111 | 0.0 | 0.0 | 0.00 | 0.00 | 0.00 | 85 | 1010.3 |
| 20260906072005 | 75 | 111 | 0.0 | 0.0 | 0.00 | 0.00 | 0.00 | 85 | 1010.3 |
| 20260906071505 | 75 | 111 | 0.0 | 0.0 | 0.00 | 0.00 | 0.00 | 84 | 1010.3 |
| 20260906071005 | 75 | 111 | 0.0 | 0.0 | 0.00 | 0.00 | 0.00 | 84 | 1010.3 |
| 20260906070505 | 75 | 110 | 0.0 | 0.0 | 0.00 | 0.00 | 0.00 | 84 | 1010.3 |
| 20260906070005 | 75 | 110 | 0.0 | 0.0 | 0.00 | 0.00 | 0.00 | 83 | 1010.6 |
| 20260906065505 | 75 | 110 | 0.0 | 0.0 | 0.00 | 0.00 | 0.00 | 83 | 1010.6 |
| 20260906065005 | 76 | 110 | 0.0 | 0.0 | 0.00 | 0.00 | 0.00 | 83 | 1010.6 |
| 20260906064505 | 75 | 118 | 0.0 | 0.0 | 0.00 | 0.00 | 0.00 | 83 | 1011.0 |
| 20260906064006 | 75 | 144 | 0.0 | 0.0 | 0.00 | 0.00 | 0.00 | 84 | 1010.6 |
| 20260906063504 | 75 | 141 | 0.0 | 0.0 | 0.00 | 0.00 | 0.00 | 84 | 1011.0 |
| 20260906063005 | 75 | 117 | 0.0 | 0.0 | 0.00 | 0.00 | 0.00 | 84 | 1011.0 |
| 20260906062505 | 75 | 118 | 0.0 | 0.0 | 0.00 | 0.00 | 0.00 | 84 | 1010.6 |
| 20260906062005 | 75 | 116 | 0.0 | 0.0 | 0.00 | 0.00 | 0.00 | 84 | 1011.0 |
| 20260906061712 | 75 | 118 | 0.0 | 0.0 | 0.00 | 0.00 | 0.00 | 84 | 1011.0 |
| 20260906061005 | 75 | 169 | 4.0 | 0.0 | 0.00 | 0.00 | 0.00 | 84 | 1010.6 |
| 20260906060504 | 75 | 111 | 0.0 | 0.0 | 0.00 | 0.00 | 0.00 | 84 | 1010.6 |
| 20260906060005 | 75 | 119 | 0.0 | 0.0 | 0.00 | 0.00 | 0.00 | 84 | 1011.0 |
| 20260906055712 | 75 | 136 | 0.0 | 0.0 | 0.00 | 0.00 | 0.00 | 84 | 1011.0 |
| 20260906055213 | 75 | 135 | 0.0 | 0.0 | 0.00 | 0.00 | 0.00 | 83 | 1010.6 |
| 20260906054505 | 75 | 136 | 0.0 | 0.0 | 0.00 | 0.00 | 0.00 | 83 | 1011.0 |
| 20260906054005 | 75 | 116 | 0.0 | 0.0 | 0.00 | 0.00 | 0.00 | 83 | 1011.0 |
| 20260906053505 | 75 | 122 | 0.0 | 0.0 | 0.00 | 0.00 | 0.00 | 84 | 1011.0 |
| 20260906053005 | 75 | 122 | 0.0 | 0.0 | 0.00 | 0.00 | 0.00 | 83 | 1011.0 |
| 20260906052505 | 75 | 126 | 0.0 | 0.0 | 0.00 | 0.00 | 0.00 | 83 | 1011.0 |
| 20260906052005 | 75 | 123 | 0.0 | 0.0 | 0.00 | 0.00 | 0.00 | 83 | 1011.3 |
| 20260906051505 | 75 | 115 | 0.0 | 0.0 | 0.00 | 0.00 | 0.00 | 83 | 1011.6 |
| 20260906051005 | 75 | 117 | 0.0 | 0.0 | 0.00 | 0.00 | 0.00 | 83 | 1011.3 |
| 20260906050711 | 75 | 137 | 0.0 | 0.0 | 0.00 | 0.00 | 0.00 | 83 | 1011.3 |
| 20260906045505 | 76 | 114 | 0.0 | 0.0 | 0.00 | 0.00 | 0.00 | 82 | 1011.6 |
| 20260906045005 | 75 | 95 | 0.0 | 0.0 | 0.00 | 0.00 | 0.00 | 82 | 1011.6 |
| 20260906044505 | 75 | 147 | 0.0 | 0.0 | 0.00 | 0.00 | 0.00 | 82 | 1011.3 |
| 20260906044004 | 75 | 111 | 0.0 | 0.0 | 0.00 | 0.00 | 0.00 | 81 | 1011.0 |
| 20260906043505 | 75 | 120 | 0.0 | 0.0 | 0.00 | 0.00 | 0.00 | 81 | 1011.0 |
| 20260906043005 | 75 | 114 | 0.0 | 0.0 | 0.00 | 0.00 | 0.00 | 82 | 1011.3 |
| 20260906042505 | 76 | 118 | 0.0 | 0.0 | 0.00 | 0.00 | 0.00 | 82 | 1011.0 |
| 20260906042005 | 76 | 110 | 0.0 | 0.0 | 0.00 | 0.00 | 0.00 | 82 | 1011.3 |
| 20260906041505 | 76 | 135 | 0.0 | 0.0 | 0.00 | 0.00 | 0.00 | 81 | 1011.3 |
| 20260906041005 | 76 | 92 | 4.0 | 0.0 | 0.00 | 0.00 | 0.00 | 81 | 1011.3 |
| 20260906040505 | 76 | 69 | 9.0 | 0.0 | 0.00 | 0.00 | 0.00 | 80 | 1011.3 |
| 20260906040005 | 77 | 111 | 0.0 | 0.0 | 0.00 | 0.00 | 0.00 | 79 | 1011.0 |
| 20260906035505 | 77 | 90 | 0.0 | 0.0 | 0.00 | 0.00 | 0.00 | 77 | 1011.0 |
| 20260906035005 | 77 | 102 | 0.0 | 0.0 | 0.00 | 0.00 | 0.00 | 76 | 1011.0 |
| 20260906034711 | 77 | 129 | 0.0 | 0.0 | 0.00 | 0.00 | 0.00 | 75 | 1011.0 |
| 20260906034005 | 77 | 85 | 0.0 | 0.0 | 0.00 | 0.00 | 0.00 | 74 | 1010.6 |
| 20260906033713 | 77 | 94 | 4.0 | 0.0 | 0.00 | 0.00 | 0.00 | 73 | 1011.0 |
| 20260906033212 | 76 | 100 | 0.0 | 0.0 | 0.00 | 0.00 | 0.00 | 73 | 1011.3 |
| 20260906032505 | 76 | 142 | 0.0 | 0.0 | 0.00 | 0.00 | 0.00 | 73 | 1011.0 |
| 20260906032004 | 76 | 113 | 0.0 | 0.0 | 0.00 | 0.00 | 0.00 | 72 | 1011.0 |
| 20260906031505 | 76 | 117 | 4.0 | 0.0 | 0.00 | 0.00 | 0.00 | 72 | 1011.0 |
| 20260906031212 | 76 | 114 | 0.0 | 0.0 | 0.00 | 0.00 | 0.00 | 71 | 1011.3 |
| 20260906030505 | 76 | 116 | 4.0 | 0.0 | 0.00 | 0.00 | 0.00 | 72 | 1011.3 |
| 20260906030005 | 76 | 160 | 4.0 | 0.0 | 0.00 | 0.00 | 0.00 | 72 | 1011.3 |
| 20260906025505 | 76 | 140 | 4.0 | 0.0 | 0.00 | 0.00 | 0.00 | 72 | 1011.3 |
| 20260906025005 | 76 | 129 | 4.0 | 0.0 | 0.00 | 0.00 | 0.00 | 72 | 1011.3 |
| 20260906024505 | 76 | 204 | 18.0 | 0.0 | 0.00 | 0.00 | 0.00 | 74 | 1011.6 |
| 20260906024213 | 76 | 114 | 13.0 | 0.0 | 0.00 | 0.00 | 0.00 | 73 | 1011.6 |
| 20260906023504 | 77 | 149 | 13.0 | 0.0 | 0.00 | 0.00 | 0.00 | 72 | 1011.3 |
| 20260906023212 | 77 | 184 | 9.0 | 0.0 | 0.00 | 0.00 | 0.00 | 68 | 1011.3 |
| 20260906022505 | 77 | 119 | 9.0 | 0.0 | 0.00 | 0.00 | 0.00 | 67 | 1011.3 |
| 20260906022005 | 78 | 187 | 9.0 | 0.0 | 0.00 | 0.00 | 0.00 | 67 | 1011.6 |
| 20260906021504 | 79 | 207 | 27.0 | 0.0 | 0.00 | 0.00 | 0.00 | 67 | 1011.3 |
| 20260906021005 | 81 | 198 | 18.0 | 0.0 | 0.00 | 0.00 | 0.00 | 65 | 1011.3 |
| 20260906020505 | 83 | 234 | 23.0 | 0.0 | 0.00 | 0.00 | 0.00 | 65 | 1011.3 |
| 20260906020005 | 83 | 19 | 4.0 | 0.0 | 0.00 | 0.00 | 0.00 | 65 | 1010.6 |
| 20260906015505 | 83 | 98 | 4.0 | 0.0 | 0.00 | 0.00 | 0.00 | 65 | 1010.6 |
| 20260906015005 | 83 | 100 | 13.0 | 0.0 | 0.00 | 0.00 | 0.00 | 65 | 1010.3 |
| 20260906014712 | 83 | 42 | 13.0 | 0.0 | 0.00 | 0.00 | 0.00 | 65 | 1009.9 |
| 20260906014213 | 83 | 138 | 9.0 | 0.0 | 0.00 | 0.00 | 0.00 | 64 | 1009.6 |
| 20260906013505 | 83 | 139 | 4.0 | 0.0 | 0.00 | 0.00 | 0.00 | 64 | 1009.6 |
| 20260906013005 | 84 | 303 | 9.0 | 0.0 | 0.00 | 0.00 | 0.00 | 63 | 1009.3 |
| 20260906012505 | 84 | 166 | 4.0 | 0.0 | 0.00 | 0.00 | 0.00 | 63 | 1009.3 |
| 20260906012005 | 84 | 77 | 18.0 | 0.0 | 0.00 | 0.00 | 0.00 | 62 | 1009.3 |
| 20260906011712 | 84 | 9 | 9.0 | 0.0 | 0.00 | 0.00 | 0.00 | 61 | 1009.3 |
| 20260906011213 | 84 | 145 | 13.0 | 0.0 | 0.00 | 0.00 | 0.00 | 61 | 1008.9 |
| 20260906010712 | 85 | 103 | 18.0 | 0.0 | 0.00 | 0.00 | 0.00 | 61 | 1008.9 |
| 20260906010005 | 85 | 75 | 4.0 | 0.0 | 0.00 | 0.00 | 0.00 | 60 | 1008.9 |
| 20260906005505 | 85 | 94 | 9.0 | 0.0 | 0.00 | 0.00 | 0.00 | 59 | 1008.6 |
| 20260906005005 | 85 | 100 | 9.0 | 0.0 | 0.00 | 0.00 | 0.00 | 58 | 1008.6 |
| 20260906004505 | 86 | 35 | 4.0 | 0.0 | 0.00 | 0.00 | 0.00 | 58 | 1008.6 |
| 20260906004005 | 86 | 116 | 32.0 | 0.0 | 0.00 | 0.00 | 0.00 | 57 | 1008.6 |
| 20260906003505 | 86 | 40 | 9.0 | 0.0 | 0.00 | 0.00 | 0.00 | 56 | 1008.2 |
| 20260906003004 | 86 | 74 | 18.0 | 0.0 | 0.00 | 0.00 | 0.00 | 56 | 1008.2 |
| 20260906002712 | 86 | 6 | 13.0 | 0.0 | 0.00 | 0.00 | 0.00 | 55 | 1008.2 |
| 20260906002005 | 86 | 114 | 13.0 | 0.0 | 0.00 | 0.00 | 0.00 | 54 | 1007.9 |
| 20260906001504 | 86 | 139 | 9.0 | 0.0 | 0.00 | 0.00 | 0.00 | 53 | 1007.9 |
| 20260906001005 | 87 | 357 | 27.0 | 0.0 | 0.00 | 0.00 | 0.00 | 53 | 1007.9 |
| 20260906000505 | 87 | 79 | 18.0 | 0.0 | 0.00 | 0.00 | 0.00 | 52 | 1007.9 |
| 20260906000005 | 88 | 164 | 9.0 | 0.0 | 0.00 | 0.00 | 0.00 | 51 | 1007.6 |
| 20260905235505 | 88 | 86 | 9.0 | 0.0 | 0.00 | 0.00 | 0.00 | 50 | 1007.2 |
| 20260905235005 | 88 | 116 | 4.0 | 0.0 | 0.00 | 0.00 | 0.00 | 50 | 1006.9 |
| 20260905234505 | 88 | 84 | 23.0 | 0.0 | 0.00 | 0.00 | 0.00 | 50 | 1006.9 |
| 20260905234005 | 89 | 29 | 23.0 | 0.0 | 0.00 | 0.00 | 0.00 | 49 | 1006.9 |
| 20260905233505 | 89 | 50 | 9.0 | 0.0 | 0.00 | 0.00 | 0.00 | 49 | 1006.9 |
| 20260905233004 | 89 | 102 | 13.0 | 0.0 | 0.00 | 0.00 | 0.00 | 48 | 1006.9 |
| 20260905232505 | 89 | 70 | 18.0 | 0.0 | 0.00 | 0.00 | 0.00 | 48 | 1006.9 |
| 20260905232005 | 89 | 39 | 23.0 | 0.0 | 0.00 | 0.00 | 0.00 | 47 | 1006.9 |
| 20260905231505 | 90 | 5 | 13.0 | 0.0 | 0.00 | 0.00 | 0.00 | 46 | 1006.9 |
| 20260905231005 | 90 | 120 | 13.0 | 0.0 | 0.00 | 0.00 | 0.00 | 44 | 1006.9 |
| 20260905230505 | 90 | 44 | 23.0 | 0.0 | 0.00 | 0.00 | 0.00 | 44 | 1006.9 |
| 20260905230212 | 90 | 156 | 9.0 | 0.0 | 0.00 | 0.00 | 0.00 | 44 | 1006.5 |
| 20260905225505 | 91 | 41 | 23.0 | 0.0 | 0.00 | 0.00 | 0.00 | 44 | 1006.5 |
| 20260905225005 | 90 | 62 | 23.0 | 0.0 | 0.00 | 0.00 | 0.00 | 43 | 1006.2 |
| 20260905224504 | 91 | 356 | 9.0 | 0.0 | 0.00 | 0.00 | 0.00 | 43 | 1006.5 |
| 20260905224005 | 91 | 100 | 27.0 | 0.0 | 0.00 | 0.00 | 0.00 | 43 | 1006.5 |
| 20260905223505 | 91 | 83 | 18.0 | 0.0 | 0.00 | 0.00 | 0.00 | 42 | 1006.5 |
| 20260905223005 | 91 | 2 | 23.0 | 0.0 | 0.00 | 0.00 | 0.00 | 41 | 1006.2 |
| 20260905222505 | 92 | 62 | 13.0 | 0.0 | 0.00 | 0.00 | 0.00 | 41 | 1006.2 |
| 20260905222005 | 92 | 68 | 9.0 | 0.0 | 0.00 | 0.00 | 0.00 | 40 | 1006.2 |
| 20260905221505 | 92 | 48 | 13.0 | 0.0 | 0.00 | 0.00 | 0.00 | 40 | 1006.2 |
| 20260905221005 | 91 | 155 | 4.0 | 0.0 | 0.00 | 0.00 | 0.00 | 41 | 1006.2 |
| 20260905220504 | 92 | 44 | 13.0 | 0.0 | 0.00 | 0.00 | 0.00 | 39 | 1006.2 |
| 20260905220005 | 92 | 30 | 18.0 | 0.0 | 0.00 | 0.00 | 0.00 | 38 | 1006.2 |
| 20260905215713 | 92 | 100 | 18.0 | 0.0 | 0.00 | 0.00 | 0.00 | 37 | 1006.5 |
| 20260905215005 | 92 | 66 | 4.0 | 0.0 | 0.00 | 0.00 | 0.00 | 37 | 1006.2 |
| 20260905214505 | 92 | 90 | 13.0 | 0.0 | 0.00 | 0.00 | 0.00 | 36 | 1006.5 |
| 20260905214005 | 93 | 47 | 27.0 | 0.0 | 0.00 | 0.00 | 0.00 | 36 | 1006.5 |
| 20260905213505 | 93 | 141 | 4.0 | 0.0 | 0.00 | 0.00 | 0.00 | 36 | 1006.5 |
| 20260905213006 | 93 | 116 | 9.0 | 0.0 | 0.00 | 0.00 | 0.00 | 36 | 1006.9 |
| 20260905212712 | 92 | 125 | 9.0 | 0.0 | 0.00 | 0.00 | 0.00 | 37 | 1006.5 |
| 20260905212211 | 92 | 108 | 13.0 | 0.0 | 0.00 | 0.00 | 0.00 | 38 | 1006.5 |
| 20260905211505 | 92 | 163 | 13.0 | 0.0 | 0.00 | 0.00 | 0.00 | 38 | 1006.9 |
| 20260905211005 | 91 | 129 | 9.0 | 0.0 | 0.00 | 0.00 | 0.00 | 39 | 1006.9 |
| 20260905210505 | 92 | 104 | 9.0 | 0.0 | 0.00 | 0.00 | 0.00 | 39 | 1006.9 |
| 20260905210211 | 92 | 62 | 9.0 | 0.0 | 0.00 | 0.00 | 0.00 | 38 | 1006.9 |
| 20260905205505 | 92 | 43 | 13.0 | 0.0 | 0.00 | 0.00 | 0.00 | 38 | 1007.2 |
| 20260905205005 | 94 | 99 | 9.0 | 0.0 | 0.00 | 0.00 | 0.00 | 36 | 1007.2 |
| 20260905204712 | 93 | 8 | 18.0 | 0.0 | 0.00 | 0.00 | 0.00 | 37 | 1007.2 |
| 20260905204211 | 93 | 154 | 9.0 | 0.0 | 0.00 | 0.00 | 0.00 | 37 | 1007.6 |
| 20260905203505 | 92 | 78 | 13.0 | 0.0 | 0.00 | 0.00 | 0.00 | 37 | 1007.6 |
| 20260905203213 | 93 | 131 | 13.0 | 0.0 | 0.00 | 0.00 | 0.00 | 38 | 1007.2 |
| 20260905202505 | 93 | 136 | 18.0 | 0.0 | 0.00 | 0.00 | 0.00 | 37 | 1007.2 |
| 20260905202005 | 93 | 58 | 13.0 | 0.0 | 0.00 | 0.00 | 0.00 | 36 | 1007.6 |
| 20260905201505 | 92 | 83 | 4.0 | 0.0 | 0.00 | 0.00 | 0.00 | 38 | 1007.9 |
| 20260905201004 | 92 | 41 | 9.0 | 0.0 | 0.00 | 0.00 | 0.00 | 39 | 1007.9 |
| 20260905200505 | 92 | 51 | 4.0 | 0.0 | 0.00 | 0.00 | 0.00 | 38 | 1007.9 |
| 20260905200005 | 92 | 78 | 9.0 | 0.0 | 0.00 | 0.00 | 0.00 | 38 | 1008.2 |
| 20260905195505 | 93 | 84 | 13.0 | 0.0 | 0.00 | 0.00 | 0.00 | 37 | 1008.2 |
| 20260905195213 | 93 | 73 | 9.0 | 0.0 | 0.00 | 0.00 | 0.00 | 36 | 1008.2 |
| 20260905194505 | 93 | 107 | 9.0 | 0.0 | 0.00 | 0.00 | 0.00 | 37 | 1008.6 |
| 20260905194005 | 92 | 158 | 4.0 | 0.0 | 0.00 | 0.00 | 0.00 | 40 | 1008.6 |
| 20260905193504 | 93 | 88 | 4.0 | 0.0 | 0.00 | 0.00 | 0.00 | 39 | 1008.6 |
| 20260905193005 | 93 | 118 | 13.0 | 0.0 | 0.00 | 0.00 | 0.00 | 39 | 1008.6 |
| 20260905192712 | 92 | 79 | 4.0 | 0.0 | 0.00 | 0.00 | 0.00 | 40 | 1008.6 |
| 20260905192005 | 92 | 327 | 18.0 | 0.0 | 0.00 | 0.00 | 0.00 | 41 | 1008.9 |
| 20260905191505 | 93 | 59 | 9.0 | 0.0 | 0.00 | 0.00 | 0.00 | 39 | 1008.9 |
| 20260905191213 | 92 | 37 | 9.0 | 0.0 | 0.00 | 0.00 | 0.00 | 40 | 1009.3 |
| 20260905190505 | 92 | 124 | 13.0 | 0.0 | 0.00 | 0.00 | 0.00 | 41 | 1008.9 |
| 20260905190213 | 92 | 88 | 9.0 | 0.0 | 0.00 | 0.00 | 0.00 | 42 | 1009.3 |
| 20260905185505 | 92 | 62 | 13.0 | 0.0 | 0.00 | 0.00 | 0.00 | 43 | 1009.3 |
| 20260905185005 | 91 | 59 | 23.0 | 0.0 | 0.00 | 0.00 | 0.00 | 44 | 1009.3 |
| 20260905184505 | 91 | 82 | 13.0 | 0.0 | 0.00 | 0.00 | 0.00 | 44 | 1009.6 |
| 20260905184004 | 91 | 45 | 18.0 | 0.0 | 0.00 | 0.00 | 0.00 | 45 | 1009.3 |
| 20260905183505 | 92 | 161 | 9.0 | 0.0 | 0.00 | 0.00 | 0.00 | 43 | 1009.6 |
| 20260905183005 | 91 | 55 | 13.0 | 0.0 | 0.00 | 0.00 | 0.00 | 43 | 1009.6 |
| 20260905182505 | 89 | 72 | 4.0 | 0.0 | 0.00 | 0.00 | 0.00 | 46 | 1009.3 |
| 20260905182005 | 90 | 131 | 9.0 | 0.0 | 0.00 | 0.00 | 0.00 | 46 | 1009.6 |
| 20260905181505 | 91 | 113 | 4.0 | 0.0 | 0.00 | 0.00 | 0.00 | 43 | 1009.6 |
| 20260905181005 | 91 | 36 | 9.0 | 0.0 | 0.00 | 0.00 | 0.00 | 44 | 1009.9 |
| 20260905180505 | 91 | 165 | 4.0 | 0.0 | 0.00 | 0.00 | 0.00 | 45 | 1009.9 |
| 20260905180005 | 90 | 107 | 4.0 | 0.0 | 0.00 | 0.00 | 0.00 | 47 | 1009.9 |
| 20260905175505 | 91 | 351 | 13.0 | 0.0 | 0.00 | 0.00 | 0.00 | 45 | 1009.9 |
| 20260905175005 | 91 | 68 | 18.0 | 0.0 | 0.00 | 0.00 | 0.00 | 44 | 1010.3 |
| 20260905174505 | 90 | 47 | 9.0 | 0.0 | 0.00 | 0.00 | 0.00 | 48 | 1009.9 |
| 20260905174212 | 91 | 18 | 13.0 | 0.0 | 0.00 | 0.00 | 0.00 | 47 | 1010.3 |
| 20260905173505 | 90 | 164 | 9.0 | 0.0 | 0.00 | 0.00 | 0.00 | 48 | 1010.3 |
| 20260905173005 | 90 | 27 | 13.0 | 0.0 | 0.00 | 0.00 | 0.00 | 47 | 1010.3 |
| 20260905172505 | 89 | 25 | 18.0 | 0.0 | 0.00 | 0.00 | 0.00 | 49 | 1010.3 |
| 20260905172005 | 90 | 81 | 9.0 | 0.0 | 0.00 | 0.00 | 0.00 | 48 | 1010.6 |
| 20260905171713 | 89 | 351 | 18.0 | 0.0 | 0.00 | 0.00 | 0.00 | 49 | 1010.6 |
| 20260905171005 | 89 | 144 | 23.0 | 0.0 | 0.00 | 0.00 | 0.00 | 50 | 1010.6 |
| 20260905170713 | 89 | 357 | 4.0 | 0.0 | 0.00 | 0.00 | 0.00 | 50 | 1010.6 |
| 20260905170212 | 89 | 119 | 0.0 | 0.0 | 0.00 | 0.00 | 0.00 | 52 | 1010.6 |
| 20260905165505 | 88 | 108 | 9.0 | 0.0 | 0.00 | 0.00 | 0.00 | 52 | 1011.0 |
| 20260905165005 | 88 | 196 | 9.0 | 0.0 | 0.00 | 0.00 | 0.00 | 54 | 1010.6 |
| 20260905164505 | 89 | 171 | 18.0 | 0.0 | 0.00 | 0.00 | 0.00 | 52 | 1010.6 |
| 20260905164005 | 89 | 88 | 18.0 | 0.0 | 0.00 | 0.00 | 0.00 | 53 | 1010.6 |
| 20260905163505 | 89 | 39 | 13.0 | 0.0 | 0.00 | 0.00 | 0.00 | 54 | 1011.0 |
| 20260905163004 | 88 | 178 | 9.0 | 0.0 | 0.00 | 0.00 | 0.00 | 53 | 1010.6 |
| 20260905162505 | 88 | 190 | 9.0 | 0.0 | 0.00 | 0.00 | 0.00 | 53 | 1011.0 |
| 20260905162005 | 86 | 45 | 4.0 | 0.0 | 0.00 | 0.00 | 0.00 | 58 | 1011.0 |
| 20260905161505 | 86 | 156 | 18.0 | 0.0 | 0.00 | 0.00 | 0.00 | 57 | 1011.3 |
| 20260905161005 | 88 | 85 | 18.0 | 0.0 | 0.00 | 0.00 | 0.00 | 55 | 1011.3 |
| 20260905160505 | 87 | 119 | 9.0 | 0.0 | 0.00 | 0.00 | 0.00 | 56 | 1011.3 |
| 20260905160005 | 87 | 116 | 13.0 | 0.0 | 0.00 | 0.00 | 0.00 | 57 | 1011.3 |
| 20260905155505 | 86 | 115 | 9.0 | 0.0 | 0.00 | 0.00 | 0.00 | 58 | 1011.3 |
| 20260905155211 | 86 | 156 | 9.0 | 0.0 | 0.00 | 0.00 | 0.00 | 58 | 1011.3 |
| 20260905154505 | 86 | 105 | 13.0 | 0.0 | 0.00 | 0.00 | 0.00 | 60 | 1011.0 |
| 20260905154005 | 86 | 119 | 4.0 | 0.0 | 0.00 | 0.00 | 0.00 | 59 | 1011.3 |
| 20260905153712 | 86 | 179 | 4.0 | 0.0 | 0.00 | 0.00 | 0.00 | 61 | 1011.0 |
| 20260905153005 | 86 | 87 | 13.0 | 0.0 | 0.00 | 0.00 | 0.00 | 61 | 1011.0 |
| 20260905152712 | 85 | 56 | 9.0 | 0.0 | 0.00 | 0.00 | 0.00 | 62 | 1011.3 |
| 20260905152005 | 85 | 355 | 4.0 | 0.0 | 0.00 | 0.00 | 0.00 | 63 | 1011.6 |
| 20260905151505 | 86 | 139 | 13.0 | 0.0 | 0.00 | 0.00 | 0.00 | 62 | 1011.3 |
| 20260905151004 | 84 | 132 | 9.0 | 0.0 | 0.00 | 0.00 | 0.00 | 65 | 1011.3 |
| 20260905150505 | 84 | 105 | 18.0 | 0.0 | 0.00 | 0.00 | 0.00 | 66 | 1011.6 |
| 20260905150005 | 84 | 142 | 18.0 | 0.0 | 0.00 | 0.00 | 0.00 | 67 | 1011.3 |
| 20260905145505 | 84 | 172 | 4.0 | 0.0 | 0.00 | 0.00 | 0.00 | 67 | 1011.3 |
| 20260905145005 | 84 | 165 | 18.0 | 0.0 | 0.00 | 0.00 | 0.00 | 68 | 1011.3 |
| 20260905144505 | 84 | 152 | 9.0 | 0.0 | 0.00 | 0.00 | 0.00 | 68 | 1011.3 |
| 20260905144005 | 83 | 61 | 13.0 | 0.0 | 0.00 | 0.00 | 0.00 | 70 | 1011.3 |
| 20260905143504 | 83 | 164 | 9.0 | 0.0 | 0.00 | 0.00 | 0.00 | 71 | 1011.3 |
| 20260905143005 | 83 | 114 | 9.0 | 0.0 | 0.00 | 0.00 | 0.00 | 72 | 1011.3 |
| 20260905142505 | 82 | 128 | 0.0 | 0.0 | 0.00 | 0.00 | 0.00 | 73 | 1011.3 |
| 20260905142213 | 83 | 199 | 13.0 | 0.0 | 0.00 | 0.00 | 0.00 | 73 | 1011.3 |
| 20260905141712 | 82 | 57 | 9.0 | 0.0 | 0.00 | 0.00 | 0.00 | 74 | 1011.3 |
| 20260905141005 | 82 | 137 | 9.0 | 0.0 | 0.00 | 0.00 | 0.00 | 76 | 1011.3 |
| 20260905140505 | 82 | 76 | 9.0 | 0.0 | 0.00 | 0.00 | 0.00 | 76 | 1011.0 |
| 20260905140005 | 82 | 129 | 9.0 | 0.0 | 0.00 | 0.00 | 0.00 | 77 | 1011.3 |
| 20260905135505 | 81 | 130 | 4.0 | 0.0 | 0.00 | 0.00 | 0.00 | 77 | 1011.0 |
| 20260905135004 | 81 | 107 | 9.0 | 0.0 | 0.00 | 0.00 | 0.00 | 79 | 1010.6 |
| 20260905134712 | 80 | 176 | 4.0 | 0.0 | 0.00 | 0.00 | 0.00 | 80 | 1011.0 |
| 20260905134004 | 80 | 73 | 13.0 | 0.0 | 0.00 | 0.00 | 0.00 | 82 | 1011.0 |
| 20260905133505 | 80 | 109 | 4.0 | 0.0 | 0.00 | 0.00 | 0.00 | 83 | 1010.6 |
| 20260905133005 | 80 | 11 | 4.0 | 0.0 | 0.00 | 0.00 | 0.00 | 83 | 1010.6 |
| 20260905132505 | 79 | 26 | 4.0 | 0.0 | 0.00 | 0.00 | 0.00 | 84 | 1010.6 |
| 20260905132005 | 79 | 103 | 13.0 | 0.0 | 0.00 | 0.00 | 0.00 | 84 | 1010.6 |
| 20260905131505 | 79 | 73 | 13.0 | 0.0 | 0.00 | 0.00 | 0.00 | 85 | 1010.6 |
| 20260905131005 | 78 | 100 | 0.0 | 0.0 | 0.00 | 0.00 | 0.00 | 86 | 1010.6 |
| 20260905130505 | 78 | 67 | 4.0 | 0.0 | 0.00 | 0.00 | 0.00 | 86 | 1010.3 |
| 20260905130004 | 78 | 82 | 0.0 | 0.0 | 0.00 | 0.00 | 0.00 | 87 | 1010.3 |
| 20260905125505 | 78 | 136 | 0.0 | 0.0 | 0.00 | 0.00 | 0.00 | 87 | 1010.3 |
| 20260905125005 | 77 | 82 | 4.0 | 0.0 | 0.00 | 0.00 | 0.00 | 88 | 1010.3 |
| 20260905124505 | 77 | 134 | 0.0 | 0.0 | 0.00 | 0.00 | 0.00 | 88 | 1010.3 |
| 20260905124005 | 77 | 117 | 0.0 | 0.0 | 0.00 | 0.00 | 0.00 | 88 | 1009.9 |
| 20260905123505 | 77 | 70 | 4.0 | 0.0 | 0.00 | 0.00 | 0.00 | 88 | 1009.9 |
| 20260905123212 | 77 | 128 | 0.0 | 0.0 | 0.00 | 0.00 | 0.00 | 88 | 1009.9 |
| 20260905122504 | 77 | 121 | 0.0 | 0.0 | 0.00 | 0.00 | 0.00 | 88 | 1009.9 |
| 20260905122005 | 77 | 154 | 0.0 | 0.0 | 0.00 | 0.00 | 0.00 | 88 | 1009.9 |
| 20260905121505 | 77 | 100 | 4.0 | 0.0 | 0.00 | 0.00 | 0.00 | 88 | 1009.6 |
| 20260905121005 | 77 | 99 | 0.0 | 0.0 | 0.00 | 0.00 | 0.00 | 88 | 1009.6 |
| 20260905120711 | 77 | 107 | 4.0 | 0.0 | 0.00 | 0.00 | 0.00 | 88 | 1009.9 |
| 20260905120005 | 77 | 124 | 0.0 | 0.0 | 0.00 | 0.00 | 0.00 | 88 | 1009.6 |
| 20260905115505 | 77 | 101 | 0.0 | 0.0 | 0.00 | 0.00 | 0.00 | 88 | 1009.6 |
| 20260905115005 | 77 | 94 | 0.0 | 0.0 | 0.00 | 0.00 | 0.00 | 87 | 1009.3 |
| 20260905114713 | 77 | 127 | 0.0 | 0.0 | 0.00 | 0.00 | 0.00 | 87 | 1009.6 |
| 20260905114005 | 77 | 79 | 4.0 | 0.0 | 0.00 | 0.00 | 0.00 | 87 | 1009.3 |
| 20260905113505 | 77 | 126 | 0.0 | 0.0 | 0.00 | 0.00 | 0.00 | 87 | 1009.6 |
| 20260905113005 | 78 | 106 | 0.0 | 0.0 | 0.00 | 0.00 | 0.00 | 87 | 1009.6 |
| 20260905112504 | 78 | 132 | 0.0 | 0.0 | 0.00 | 0.00 | 0.00 | 86 | 1009.6 |
| 20260905112005 | 78 | 93 | 0.0 | 0.0 | 0.00 | 0.00 | 0.00 | 86 | 1009.3 |
| 20260905111505 | 78 | 135 | 0.0 | 0.0 | 0.00 | 0.00 | 0.00 | 86 | 1009.6 |
| 20260905111005 | 78 | 68 | 4.0 | 0.0 | 0.00 | 0.00 | 0.00 | 86 | 1009.6 |